sat.trackr.live / text

‹ back to catalog

COSMOS 2456 (730)

NORAD 36111 · 2009-070A

PAYLOAD ACTIVE UNKNOWN

§ Identity

Operator
Country
CIS
Launch date
2009-12-14
Launch site
TYMSC
Launch vehicle
Mass (kg)
RCS (m²)
5.01

Purposes: nav

External: N2YO · Heavens-Above · Gunter

§ Orbital elements

Epoch: 2026-05-24T02:46:33.055968Z

Period
675.73 min
Inclination
64.9981°
Eccentricity
0.0005494
Mean motion
2.13103527 rev/d
Perigee alt
19,115.8 km
Apogee alt
19,143.8 km
Semi-major
25,507.9 km
B*
0.0000e+0
RAAN
71.7925°
Arg perigee
323.9681°
Mean anomaly
185.3764°
Rev number
12,791

§ Raw data

COSMOS 2456 (730)1 36111U 09070A   26144.11566037 -.00000034  00000+0  00000+0 0  99902 36111  64.9981  71.7925 0005494 323.9681 185.3764  2.13103527127914

JSON: /api/v1/satellites/36111 · /tle

For live sub-satellite position, see the globe view (requires WebGL).

§ Visibility from observer

Set your observer location to see the next 7 days of passes ≥ 10°. The values pass through the URL so the page stays shareable.

No JS? Fill the form by hand. The geolocation button needs JavaScript.